User: anonymous   Login
Location: Starry Hill Observatory
(46.8582°N, 122.3590°W)
Time: 06:36:35
(UTC-07:00)
Language:

Cosmos 1300 Rocket - Orbit

View from above orbital plane
View from above orbital plane
View from above satellite
View from above satellite

Ground track
Ground track

The orbit data is extracted from the following two-line orbital elements,

1 12786U 81082B   17146.56669428 +.00000098 +00000-0 +87185-5 0  9999
2 12786 082.4879 348.0851 0016773 330.9675 029.0606 14.84682430931602
Epoch (UTC): 26 May 2017 13:36:02
Eccentricity: 0.0016773
inclination: 82.4879°
perigee height: 603 km
apogee height: 626 km
right ascension of ascending node: 348.0851°
argument of perigee: 330.9675°
revolutions per day: 14.84682430
mean anomaly at epoch: 29.0606°
orbit number at epoch: 93160

The dashed part of the orbit path shows where the satellite is in the earth's shadow,  

DLR